CAPELLA-15 (ACADIA-5) (60544 NORAD) Tracking and Keplerian Element Data

This shows tracking and keplerian element data for the satellite.

Feedback or suggestion? Click here.




ElementValue
Catalog60544
NameCAPELLA-15 (ACADIA-5)
Epoch Orbit849
Epoch Day286.77558862
Epoch Year2024
RAAN1.3971
Inclination97.7389
Eccentricity0.0003845
Argument of Perigee314.5403
Mean Anonmoly45.5503
Mean Motion14.95393053
Decay Rate0.00027465
L11 60544U 24149CE 24286.77558862 .00027465 00000+0 24834-2 0 9995
L22 60544 97.7389 1.3971 0003845 314.5403 45.5503 14.95393053 8490



Live tracking and technical data element details for CAPELLA-15 (ACADIA-5) (NORAD 60544). CAPELLA-15 (ACADIA-5) can be tracked NOW for your location showing map with azimuth and elevation plus other details from your city location.







IsCatalogInMostPopularTable: catalog: 60544, numindb: 5
Update: records affected: 1



GetName: 60544 CAPELLA-15 (ACADIA-5)

Hit Count: updated at: Fri, 06 Dec 2024 10:34:26 GMT